DEEP11 KLSV-

Flight info

Callsign DEEP11
Flight time N/A
Altitude VFR
Route
Aircraft F22/M-VGD/C

Departure

Time 2026-04-24 02:08
Airport Nellis Air Force Base (KLSV)

Arrival

Time N/A
Airport -
Time Latitude Longitude Altitude Speed Heading
2026-04-24 02:01 36.23913 -115.03630 1848 ft 0 kts 219°
2026-04-24 02:03 36.23902 -115.03638 1848 ft 4 kts 196°
2026-04-24 02:04 36.23893 -115.03596 1848 ft 10 kts 45°
2026-04-24 02:04 36.23949 -115.03532 1848 ft 12 kts 41°
2026-04-24 02:04 36.24021 -115.03457 1849 ft 14 kts 39°
2026-04-24 02:04 36.24098 -115.03382 1852 ft 14 kts 38°
2026-04-24 02:05 36.24172 -115.03307 1854 ft 14 kts 41°
2026-04-24 02:05 36.24243 -115.03218 1856 ft 15 kts 47°
2026-04-24 02:05 36.24321 -115.03151 1860 ft 13 kts 16°
2026-04-24 02:05 36.24411 -115.03142 1863 ft 13 kts 360°
2026-04-24 02:06 36.24504 -115.03139 1865 ft 16 kts
2026-04-24 02:06 36.24638 -115.03133 1869 ft 23 kts
2026-04-24 02:06 36.24731 -115.03024 1869 ft 24 kts 90°
2026-04-24 02:06 36.24724 -115.02806 1864 ft 27 kts 91°
2026-04-24 02:07 36.24720 -115.02567 1864 ft 24 kts 92°
2026-04-24 02:07 36.24697 -115.02495 1869 ft 6 kts 179°
2026-04-24 02:07 36.24577 -115.02618 1862 ft 104 kts 220°
2026-04-24 02:07 36.23362 -115.03925 2245 ft 331 kts 220°
2026-04-24 02:08 36.21410 -115.06519 3536 ft 490 kts 238°
2026-04-24 02:08 36.20840 -115.11066 6211 ft 600 kts 281°
2026-04-24 02:08 36.22911 -115.15687 7717 ft 612 kts 317°
2026-04-24 02:08 36.25737 -115.17325 8592 ft 390 kts 351°
2026-04-24 02:09 36.28273 -115.17738 10252 ft 352 kts 352°
2026-04-24 02:09 36.30675 -115.18047 11390 ft 346 kts 354°
2026-04-24 02:09 36.33072 -115.18292 11638 ft 357 kts 354°
2026-04-24 02:09 36.35642 -115.18819 11688 ft 390 kts 351°
2026-04-24 02:10 36.38441 -115.18736 11766 ft 420 kts
2026-04-24 02:10 36.41415 -115.17962 11496 ft 453 kts 11°
2026-04-24 02:10 36.44599 -115.17143 11361 ft 481 kts 11°
2026-04-24 02:10 36.47982 -115.16294 11387 ft 506 kts 10°
2026-04-24 02:11 36.51514 -115.15437 11438 ft 527 kts 10°
2026-04-24 02:11 36.55174 -115.14566 11506 ft 543 kts 10°
2026-04-24 02:11 36.58930 -115.13669 11394 ft 556 kts 12°
2026-04-24 02:11 36.62502 -115.11887 11235 ft 566 kts 28°
2026-04-24 02:12 36.65797 -115.09093 10596 ft 581 kts 36°
2026-04-24 02:12 36.69036 -115.06009 10010 ft 588 kts 37°
2026-04-24 02:12 36.72285 -115.02881 9066 ft 585 kts 32°
2026-04-24 02:12 36.75201 -115.03309 5567 ft 380 kts 348°
2026-04-24 02:13 36.77991 -115.03377 3931 ft 526 kts
2026-04-24 02:13 36.82650 -115.02911 3763 ft 773 kts
2026-04-24 02:13 36.87625 -115.02242 7563 ft 455 kts
2026-04-24 02:13 36.90520 -115.01803 13583 ft 417 kts
2026-04-24 02:14 36.91470 -115.00433 12292 ft 114 kts 110°
2026-04-24 02:14 36.91358 -114.99351 10145 ft 122 kts 20°
2026-04-24 02:14 36.92082 -114.98959 8063 ft 109 kts 254°
2026-04-24 02:14 36.92176 -115.00217 6804 ft 145 kts 192°
2026-04-24 02:15 36.91618 -115.00391 4450 ft 149 kts 140°
2026-04-24 02:15 36.90029 -114.98742 3243 ft 374 kts 118°
2026-04-24 02:15 36.88995 -114.96850 2893 ft 159 kts 180°
2026-04-24 02:15 36.88245 -114.97594 2988 ft 150 kts 324°
2026-04-24 02:16 36.89403 -114.98907 3516 ft 246 kts 356°
2026-04-24 02:16 36.89942 -114.97857 2963 ft 204 kts 85°
2026-04-24 02:16 36.90573 -114.97375 3001 ft 150 kts 252°
2026-04-24 02:16 36.90364 -114.99163 3296 ft 199 kts 345°
2026-04-24 02:17 36.91109 -114.99141 3182 ft 172 kts 46°
2026-04-24 02:17 36.91935 -114.97816 3019 ft 201 kts 70°
2026-04-24 02:17 36.91669 -114.96400 3137 ft 143 kts 222°
2026-04-24 02:17 36.91033 -114.97415 3372 ft 255 kts 241°
2026-04-24 02:18 36.90884 -114.99032 3858 ft 120 kts 30°
2026-04-24 02:18 36.91274 -114.98735 2724 ft 32 kts 212°
2026-04-24 02:18 36.90669 -114.99188 2795 ft 164 kts 212°
2026-04-24 02:18 36.89289 -114.99416 3451 ft 239 kts 95°
2026-04-24 02:19 36.89832 -114.98930 2804 ft 28 kts 37°
2026-04-24 02:19 36.90859 -114.97966 3003 ft 338 kts 36°
2026-04-24 02:19 36.92943 -114.96082 3230 ft 397 kts 35°
2026-04-24 02:19 36.95360 -114.94017 3830 ft 435 kts 31°
2026-04-24 02:20 36.97915 -114.91992 4571 ft 415 kts 30°
2026-04-24 02:20 37.00000 -114.90033 2889 ft 367 kts 47°
2026-04-24 02:20 37.01398 -114.87777 3234 ft 197 kts 160°
2026-04-24 02:20 37.00681 -114.86834 3716 ft 186 kts 149°
2026-04-24 02:21 36.99840 -114.86155 3817 ft 98 kts 132°
2026-04-24 02:21 36.99011 -114.85478 3291 ft 213 kts 179°
2026-04-24 02:21 36.98348 -114.86362 3243 ft 130 kts 349°
2026-04-24 02:21 36.99021 -114.86981 2942 ft 120 kts 324°
2026-04-24 02:22 36.99714 -114.87623 2924 ft 116 kts 328°
2026-04-24 02:22 37.00298 -114.88107 3409 ft 146 kts 319°
2026-04-24 02:22 37.01695 -114.89112 3916 ft 337 kts
2026-04-24 02:22 37.02744 -114.87327 3929 ft 288 kts 153°
2026-04-24 02:23 37.00624 -114.87424 3318 ft 356 kts 204°
2026-04-24 02:23 36.98657 -114.86481 4557 ft 185 kts 36°
2026-04-24 02:23 36.99261 -114.85002 3851 ft 255 kts 29°
2026-04-24 02:23 37.00306 -114.84353 8898 ft 88 kts 20°
2026-04-24 02:24 37.00663 -114.84097 14654 ft 34 kts 26°
2026-04-24 02:24 37.00956 -114.83848 14791 ft 52 kts 24°
2026-04-24 02:24 37.01262 -114.83665 11410 ft 53 kts 334°
2026-04-24 02:24 37.01583 -114.83922 7892 ft 70 kts 280°
2026-04-24 02:25 37.01967 -114.85425 6434 ft 291 kts 290°
2026-04-24 02:25 37.03095 -114.86593 5377 ft 164 kts 28°
2026-04-24 02:25 37.04162 -114.84885 3419 ft 406 kts 56°
2026-04-24 02:25 37.06377 -114.81491 5054 ft 427 kts 45°
2026-04-24 02:26 37.07340 -114.80236 9005 ft 32 kts 233°
2026-04-24 02:26 37.07331 -114.80683 6945 ft 206 kts 240°
2026-04-24 02:26 37.05682 -114.82813 3169 ft 416 kts 220°
2026-04-24 02:26 37.03637 -114.85522 5400 ft 309 kts 231°
2026-04-24 02:27 37.03395 -114.86066 9925 ft 65 kts 246°
2026-04-24 02:27 37.03299 -114.86064 6796 ft 183 kts 78°
2026-04-24 02:27 37.04714 -114.83433 3489 ft 574 kts 43°
2026-04-24 02:27 37.08185 -114.79337 3351 ft 766 kts 43°
2026-04-24 02:28 37.12354 -114.74479 3243 ft 852 kts 42°
2026-04-24 02:28 37.16754 -114.69357 3524 ft 878 kts 42°
2026-04-24 02:28 37.21023 -114.65489 8167 ft 514 kts 20°
2026-04-24 02:28 37.22612 -114.64593 16184 ft 9 kts 210°
2026-04-24 02:29 37.22539 -114.64814 14790 ft 65 kts 194°
2026-04-24 02:29 37.22085 -114.64724 10860 ft 71 kts 138°
2026-04-24 02:29 37.21675 -114.64442 7733 ft 66 kts 197°
2026-04-24 02:29 37.20513 -114.65058 5793 ft 249 kts 216°
2026-04-24 02:30 37.19271 -114.66449 4102 ft 221 kts 227°
2026-04-24 02:30 37.18169 -114.67733 3525 ft 270 kts 223°
2026-04-24 02:30 37.17753 -114.69167 4594 ft 112 kts 47°
2026-04-24 02:30 37.18816 -114.68164 4142 ft 292 kts 24°
2026-04-24 02:31 37.18899 -114.67064 3702 ft 180 kts 191°
2026-04-24 02:31 37.17438 -114.68418 3778 ft 333 kts 228°
2026-04-24 02:31 37.15797 -114.70410 3383 ft 316 kts 222°
2026-04-24 02:31 37.15923 -114.71565 4213 ft 160 kts 323°
2026-04-24 02:32 37.16518 -114.72507 3717 ft 80 kts 174°
2026-04-24 02:32 37.16681 -114.72528 3352 ft 100 kts
2026-04-24 02:32 37.17631 -114.72569 3408 ft 175 kts 351°
2026-04-24 02:32 37.18867 -114.73069 4104 ft 165 kts 315°
2026-04-24 02:33 37.19039 -114.73342 3505 ft 0 kts 70°
2026-04-24 02:34 37.19039 -114.73341 3505 ft 0 kts 69°
2026-04-24 02:35 37.19146 -114.72986 3501 ft 114 kts 69°
2026-04-24 02:35 37.19038 -114.73340 3502 ft 0 kts 84°
2026-04-24 02:35 37.19051 -114.73190 3499 ft 72 kts 84°
2026-04-24 02:36 37.19189 -114.72357 3489 ft 61 kts 72°
2026-04-24 02:36 37.19637 -114.71586 3486 ft 211 kts 50°
2026-04-24 02:36 37.20750 -114.69843 4324 ft 238 kts 48°
2026-04-24 02:36 37.21969 -114.68772 5027 ft 270 kts 343°
2026-04-24 02:37 37.22707 -114.70429 5933 ft 216 kts 255°
2026-04-24 02:37 37.21807 -114.71834 5368 ft 208 kts 223°
2026-04-24 02:37 37.20068 -114.73666 6791 ft 430 kts 220°
2026-04-24 02:37 37.17952 -114.75841 8093 ft 370 kts 220°
2026-04-24 02:38 37.16107 -114.77676 9099 ft 308 kts 219°
2026-04-24 02:38 37.14517 -114.79143 9619 ft 263 kts 211°
2026-04-24 02:38 37.12910 -114.80001 9442 ft 243 kts 197°
2026-04-24 02:38 37.11272 -114.80397 8916 ft 236 kts 189°
2026-04-24 02:39 37.09263 -114.80711 8873 ft 375 kts 188°
2026-04-24 02:39 37.06740 -114.81059 9431 ft 342 kts 187°
2026-04-24 02:39 37.04515 -114.81326 9735 ft 302 kts 186°
2026-04-24 02:39 37.02549 -114.81533 9800 ft 273 kts 186°
2026-04-24 02:40 37.00748 -114.81704 9729 ft 247 kts 186°
2026-04-24 02:40 36.99108 -114.81843 9524 ft 225 kts 186°
2026-04-24 02:40 36.97613 -114.81943 9203 ft 206 kts 186°
2026-04-24 02:40 36.96237 -114.82020 8676 ft 190 kts 184°
2026-04-24 02:41 36.94950 -114.82023 8034 ft 180 kts 181°
2026-04-24 02:41 36.93464 -114.81971 7829 ft 286 kts 180°
2026-04-24 02:41 36.91469 -114.81885 8439 ft 289 kts 180°
2026-04-24 02:41 36.89444 -114.81801 8941 ft 293 kts 179°
2026-04-24 02:42 36.87405 -114.81728 9186 ft 295 kts 180°
2026-04-24 02:42 36.85337 -114.81664 9434 ft 298 kts 180°
2026-04-24 02:42 36.83259 -114.81605 9664 ft 299 kts 180°
2026-04-24 02:42 36.81172 -114.81550 9895 ft 301 kts 180°
2026-04-24 02:43 36.79103 -114.81499 10080 ft 303 kts 180°
2026-04-24 02:43 36.76979 -114.81455 9350 ft 302 kts 180°
2026-04-24 02:43 36.74913 -114.81415 9063 ft 296 kts 180°
2026-04-24 02:43 36.72855 -114.81370 8774 ft 295 kts 180°
2026-04-24 02:44 36.70815 -114.81319 8489 ft 292 kts 180°
2026-04-24 02:44 36.68779 -114.81263 8211 ft 293 kts 180°
2026-04-24 02:44 36.66751 -114.81214 7916 ft 290 kts 180°
2026-04-24 02:44 36.64736 -114.81140 7633 ft 287 kts 179°
2026-04-24 02:45 36.62741 -114.81024 7336 ft 286 kts 178°
2026-04-24 02:45 36.60669 -114.80858 7096 ft 336 kts 176°
2026-04-24 02:45 36.58049 -114.80894 7076 ft 392 kts 188°
2026-04-24 02:45 36.55370 -114.81559 6856 ft 391 kts 194°
2026-04-24 02:46 36.52725 -114.82366 6616 ft 392 kts 195°
2026-04-24 02:46 36.50120 -114.83312 6369 ft 390 kts 199°
2026-04-24 02:46 36.47562 -114.84408 6109 ft 387 kts 201°
2026-04-24 02:46 36.45025 -114.85552 6189 ft 388 kts 200°
2026-04-24 02:47 36.42521 -114.86680 6226 ft 389 kts 201°
2026-04-24 02:47 36.40022 -114.87900 5916 ft 384 kts 205°
2026-04-24 02:47 36.37736 -114.89528 5372 ft 370 kts 217°
2026-04-24 02:47 36.35834 -114.91569 4681 ft 353 kts 222°
2026-04-24 02:48 36.34081 -114.93472 4769 ft 315 kts 219°
2026-04-24 02:48 36.32300 -114.94879 4518 ft 295 kts 209°
2026-04-24 02:48 36.30629 -114.96226 4075 ft 282 kts 220°
2026-04-24 02:48 36.29166 -114.97787 3608 ft 272 kts 220°
2026-04-24 02:49 36.27776 -114.99252 3087 ft 236 kts 220°
2026-04-24 02:49 36.26607 -115.00482 2662 ft 215 kts 218°
2026-04-24 02:49 36.25484 -115.01662 2196 ft 208 kts 219°
2026-04-24 02:49 36.24477 -115.02727 1865 ft 169 kts 220°
2026-04-24 02:50 36.23563 -115.03709 1851 ft 166 kts 224°
2026-04-24 02:50 36.22936 -115.04383 1836 ft 56 kts 221°
2026-04-24 02:50 36.22741 -115.04598 1835 ft 35 kts 224°
2026-04-24 02:50 36.22759 -115.04781 1833 ft 19 kts 332°
2026-04-24 02:51 36.22870 -115.04708 1835 ft 20 kts 35°
2026-04-24 02:51 36.22979 -115.04579 1834 ft 23 kts 36°
2026-04-24 02:51 36.23109 -115.04450 1835 ft 25 kts 45°
2026-04-24 02:51 36.23171 -115.04376 1834 ft 8 kts 38°
2026-04-24 02:52 36.23224 -115.04375 1835 ft 10 kts 298°
2026-04-24 02:52 36.23203 -115.04435 1834 ft 2 kts 213°
2026-04-24 02:52 36.23203 -115.04436 1834 ft 0 kts 221°